FW1564 Weather Reports


time (UTC)temp
C
wind
direction
speed
KPH
gust
KPH
rain 1hr
cm
rain 24hr
cm
rain mn
cm
humidity
%
barometer
mb
20190919143053 21 130 16.1 24.1 0.00 0.00 0.00 83 1020.3
20190919142049 22 101 4.8 20.9 0.00 0.00 0.00 81 1020.3
20190919140900 22 100 17.7 24.1 0.00 0.00 0.00 78 1020.3
20190919135851 22 88 9.7 24.1 0.00 0.00 0.00 74 1020.4
20190919134857 21 174 12.9 20.9 0.00 0.00 0.00 80 1020.7
20190919133846 21 133 16.1 24.1 0.00 0.00 0.00 84 1020.8
20190919132829 21 184 9.7 24.1 0.00 0.00 0.00 85 1020.9
20190919131812 22 153 9.7 20.9 0.00 0.00 0.00 83 1020.8
20190919130806 22 199 3.2 16.1 0.00 0.00 0.00 81 1021.0
20190919125804 22 192 11.3 20.9 0.00 0.00 0.00 78 1020.8
20190919124749 22 106 6.4 16.1 0.00 0.00 0.00 79 1021.1
20190919123746 22 155 9.7 20.9 0.00 0.00 0.00 78 1021.2
20190919122744 22 111 9.7 20.9 0.00 0.00 0.00 77 1021.3
20190919121747 21 95 1.6 16.1 0.00 0.00 0.00 81 1021.4
20190919120748 21 100 3.2 16.1 0.00 0.00 0.00 80 1021.4
20190919115732 21 206 6.4 16.1 0.00 0.00 0.00 80 1021.5
20190919114730 21 163 6.4 20.9 0.00 0.00 0.00 84 1021.5
20190919113715 21 207 8.0 24.1 0.00 0.00 0.00 85 1021.5
20190919112707 20 73 9.7 16.1 0.00 0.00 0.00 87 1021.6
20190919111658 20 72 1.6 16.1 0.00 0.00 0.00 87 1021.6
20190919110648 21 190 8.0 16.1 0.00 0.00 0.00 85 1021.6
20190919105652 21 165 9.7 16.1 0.00 0.00 0.00 83 1021.7
20190919104630 21 196 3.2 24.1 0.00 0.00 0.00 82 1021.7
20190919103624 22 173 6.4 16.1 0.00 0.00 0.00 82 1021.7
20190919102611 22 193 6.4 16.1 0.00 0.00 0.00 76 1021.7
20190919101604 22 176 6.4 16.1 0.00 0.00 0.00 80 1021.8
20190919100554 22 167 8.0 20.9 0.00 0.00 0.00 77 1021.8
20190919095545 22 113 9.7 12.9 0.00 0.00 0.00 73 1021.5
20190919094536 21 102 4.8 12.9 0.00 0.00 0.00 76 1021.5
20190919093526 21 219 1.6 12.9 0.00 0.00 0.00 76 1021.4
20190919092517 21 121 3.2 8.0 0.00 0.00 0.00 77 1021.3
20190919091511 20 94 6.4 12.9 0.00 0.00 0.00 80 1021.3
20190919090458 20 52 0.0 8.0 0.00 0.00 0.00 77 1021.3
20190919085450 19 169 0.0 8.0 0.00 0.00 0.00 76 1021.0
20190919084441 18 37 3.2 8.0 0.00 0.00 0.00 78 1021.0
20190919083431 18 337 4.8 8.0 0.00 0.00 0.00 79 1020.9
20190919082422 17 6 4.8 8.0 0.00 0.00 0.00 79 1020.5
20190919081424 17 343 8.0 12.9 0.00 0.00 0.00 80 1020.4
20190919080404 17 346 8.0 12.9 0.00 0.00 0.00 81 1020.5
20190919075355 16 346 4.8 12.9 0.00 0.00 0.00 81 1020.5
20190919074346 16 342 6.4 12.9 0.00 0.00 0.00 83 1020.4
20190919073342 16 329 8.0 12.9 0.00 0.00 0.00 84 1020.3
20190919072328 16 342 6.4 12.9 0.00 0.00 0.00 84 1020.4
20190919071319 17 342 4.8 12.9 0.00 0.00 0.00 82 1020.2
20190919070317 16 342 4.8 12.9 0.00 0.00 0.00 82 1020.2
20190919065301 16 1 8.0 16.1 0.00 0.00 0.00 82 1020.1
20190919064251 16 337 6.4 12.9 0.00 0.00 0.00 84 1020.2
20190919063243 16 342 8.0 12.9 0.00 0.00 0.00 84 1020.0
20190919062235 16 338 6.4 12.9 0.00 0.00 0.00 83 1020.0
20190919061225 16 340 6.4 12.9 0.00 0.00 0.00 83 1020.0
20190919060216 16 339 4.8 12.9 0.00 0.00 0.00 84 1019.9
20190919055207 16 335 6.4 12.9 0.00 0.00 0.00 84 1019.8
20190919054158 16 340 4.8 12.9 0.00 0.00 0.00 84 1019.8
20190919053149 16 335 4.8 12.9 0.00 0.00 0.00 83 1019.7
20190919052140 17 340 6.4 8.0 0.00 0.00 0.00 83 1019.8
20190919051131 17 331 3.2 12.9 0.00 0.00 0.00 84 1019.6
20190919050126 17 325 3.2 12.9 0.00 0.00 0.00 82 1019.7
20190919045114 16 338 8.0 12.9 0.00 0.00 0.00 82 1019.8
20190919044106 16 335 8.0 12.9 0.00 0.00 0.00 83 1019.9
20190919043100 16 340 1.6 8.0 0.00 0.00 0.00 83 1019.7
20190919042048 16 340 4.8 16.1 0.00 0.00 0.00 83 1019.7
20190919041037 16 353 6.4 16.1 0.00 0.00 0.00 83 1019.8
20190919040035 16 346 6.4 12.9 0.00 0.00 0.00 84 1019.9
20190919035025 16 341 8.0 12.9 0.00 0.00 0.00 85 1019.9
20190919034016 16 341 4.8 12.9 0.00 0.00 0.00 86 1020.0
20190919033008 17 338 4.8 12.9 0.00 0.00 0.00 85 1020.1
20190919031958 17 340 6.4 12.9 0.00 0.00 0.00 83 1020.1
20190919031004 17 344 6.4 16.1 0.00 0.00 0.00 82 1020.0
20190919025942 16 339 8.0 12.9 0.00 0.00 0.00 83 1020.3
20190919024934 16 342 6.4 12.9 0.00 0.00 0.00 85 1020.2
20190919023926 16 335 6.4 16.1 0.00 0.00 0.00 85 1020.2
20190919022917 16 334 4.8 8.0 0.00 0.00 0.00 84 1020.3
20190919021913 16 342 6.4 12.9 0.00 0.00 0.00 85 1020.5
20190919020900 16 331 4.8 8.0 0.00 0.00 0.00 86 1020.5
20190919015857 16 346 4.8 8.0 0.00 0.00 0.00 84 1020.7
20190919014844 16 339 4.8 12.9 0.00 0.00 0.00 85 1020.5
20190919013841 17 341 4.8 8.0 0.00 0.00 0.00 85 1020.8
20190919012837 17 341 4.8 12.9 0.00 0.00 0.00 85 1020.9
20190919011819 17 327 4.8 12.9 0.00 0.00 0.00 84 1021.2
20190919010815 17 343 6.4 12.9 0.00 0.00 0.00 85 1021.3
20190919005815 17 341 3.2 12.9 0.00 0.00 0.00 84 1021.3
20190919004806 17 345 4.8 12.9 0.00 0.00 0.00 83 1021.3
20190919003751 17 345 3.2 12.9 0.00 0.00 0.00 82 1021.6
20190919002746 17 327 8.0 16.1 0.00 0.00 0.00 82 1021.6
20190919001737 17 346 8.0 12.9 0.00 0.00 0.00 81 1021.6
20190919000722 17 332 8.0 12.9 0.00 0.00 0.00 81 1021.5
20190918235715 17 341 9.7 16.1 0.00 0.00 0.00 81 1021.7
20190918234704 17 331 9.7 16.1 0.00 0.00 0.00 83 1021.6
20190918233655 17 340 12.9 20.9 0.00 0.00 0.00 82 1021.8
20190918232646 17 341 12.9 16.1 0.00 0.00 0.00 83 1021.8
20190918231649 17 349 12.9 16.1 0.00 0.00 0.00 85 1021.9
20190918230631 17 329 8.0 16.1 0.00 0.00 0.00 86 1022.0
20190918225626 17 352 4.8 8.0 0.00 0.00 0.00 86 1022.0
20190918224612 17 346 6.4 12.9 0.00 0.00 0.00 86 1021.9
20190918223606 17 340 6.4 8.0 0.00 0.00 0.00 87 1022.0
20190918222605 17 350 6.4 12.9 0.00 0.00 0.00 87 1021.9
20190918221557 17 326 4.8 12.9 0.00 0.00 0.00 87 1022.0
20190918220540 17 342 3.2 8.0 0.00 0.00 0.00 87 1022.0
20190918215529 17 340 4.8 8.0 0.00 0.00 0.00 87 1022.0
20190918214528 17 335 0.0 3.2 0.00 0.00 0.00 88 1022.0
20190918213513 17 332 4.8 8.0 0.00 0.00 0.00 88 1022.0
20190918212511 17 341 4.8 12.9 0.00 0.00 0.00 89 1022.0
20190918211516 17 354 3.2 8.0 0.00 0.00 0.00 90 1021.9
20190918210456 17 312 1.6 8.0 0.00 0.00 0.00 91 1021.7
20190918205446 18 343 4.8 8.0 0.00 0.00 0.00 92 1021.7
20190918204438 18 181 0.0 0.0 0.00 0.00 0.00 93 1021.6
20190918203430 18 161 0.0 0.0 0.00 0.00 0.00 92 1021.5
20190918202422 18 160 0.0 0.0 0.00 0.00 0.00 92 1021.5
20190918201413 18 203 0.0 3.2 0.00 0.00 0.00 92 1021.5
20190918200405 18 182 0.0 0.0 0.00 0.00 0.00 92 1021.3
20190918195356 18 192 0.0 3.2 0.00 0.00 0.00 92 1021.4
20190918194348 18 191 0.0 3.2 0.00 0.00 0.00 92 1021.2
20190918193340 18 201 1.6 3.2 0.00 0.00 0.00 91 1021.3
20190918192340 18 186 0.0 3.2 0.00 0.00 0.00 91 1021.2
20190918191322 18 195 1.6 3.2 0.00 0.00 0.00 91 1021.2
20190918190326 18 185 0.0 8.0 0.00 0.00 0.00 90 1021.1
20190918185306 18 188 0.0 8.0 0.00 0.00 0.00 90 1021.0
20190918184300 18 142 3.2 8.0 0.00 0.00 0.00 89 1021.0
20190918183249 18 160 1.6 8.0 0.00 0.00 0.00 89 1021.0
20190918182240 18 165 3.2 8.0 0.00 0.00 0.00 89 1021.0
20190918181233 18 190 1.6 8.0 0.00 0.00 0.00 88 1020.9
20190918180224 18 161 4.8 8.0 0.00 0.00 0.00 88 1020.8
20190918175215 18 167 0.0 12.9 0.00 0.00 0.00 88 1021.0
20190918174206 18 193 3.2 8.0 0.00 0.00 0.00 88 1020.7
20190918173158 18 183 1.6 8.0 0.00 0.00 0.00 89 1021.0
20190918172157 18 196 0.0 12.9 0.00 0.00 0.00 89 1020.9
20190918171141 18 94 3.2 12.9 0.00 0.00 0.00 89 1020.9
20190918170134 18 121 3.2 12.9 0.00 0.00 0.00 88 1020.8
20190918165124 18 115 6.4 12.9 0.00 0.00 0.00 88 1020.9
20190918164124 19 188 3.2 12.9 0.00 0.00 0.00 87 1021.0
20190918163122 19 198 0.0 8.0 0.00 0.00 0.00 87 1021.0
20190918162105 19 206 3.2 16.1 0.00 0.00 0.00 86 1020.8
20190918161056 19 212 4.8 12.9 0.00 0.00 0.00 86 1020.9
20190918160047 19 156 0.0 8.0 0.00 0.00 0.00 84 1020.8
20190918155036 19 173 4.8 16.1 0.00 0.00 0.00 84 1020.9
20190918154026 18 139 6.4 16.1 0.00 0.00 0.00 82 1020.9
20190918153027 18 172 1.6 12.9 0.00 0.00 0.00 83 1020.9
20190918152019 19 145 3.2 12.9 0.00 0.00 0.00 84 1020.9
20190918150958 19 95 3.2 12.9 0.00 0.00 0.00 83 1021.0
20190918145948 19 191 1.6 8.0 0.00 0.00 0.00 83 1021.0
20190918144940 19 166 3.2 12.9 0.00 0.00 0.00 82 1021.0
20190918143941 19 175 3.2 8.0 0.00 0.00 0.00 81 1020.9